Change the Weather History Date:

Thursday, February 28, 2013

  Actual Average (KAMA) Record (KAMA)
Temperature  
Mean Temperature 32 °F 44 °F  
Max Temperature 44 °F 58 °F 83 °F (2006)
Min Temperature 21 °F 29 °F 3 °F (1962)
Degree Days  
Heating Degree Days 32 22  
Month to date heating degree days 692  
Since 1 July heating degree days 3277  
Cooling Degree Days 0 0  
Month to date cooling degree days 0  
Year to date cooling degree days 0  
Moisture  
Dew Point 22 °F    
Average Humidity 68    
Maximum Humidity 93    
Minimum Humidity 37    
Precipitation  
Precipitation 0.00 in 0.02 in 1.02 in (1931)
Month to date precipitation 0.56  
Year to date precipitation 1.28  
Snow  
Snow 0.00 in 0.10 in 4.60 in (1922)
Month to date snowfall 2.9  
Since 1 July snowfall 14.0  
Snow Depth -    
Sea Level Pressure  
Sea Level Pressure 30.26 in    
Wind  
Wind Speed - (North)    
Max Wind Speed -    
Max Gust Speed -    
Visibility 10 miles    
Events      
T = Trace of Precipitation, MM = Missing Value Source: NWS Daily Summary

Daily Weather History Graph

Daily Weather History Graph

Search for Another Location

Airport or City:

Trip Planner

Search our weather history database for the weather conditions in past years. The results will help you decide how hot, cold, wet, or windy it might be!

Date:

Astronomy

Feb. 28, 2013 Rise Set
Actual Time 7:19 AM CST 6:44 PM CST
Civil Twilight 6:54 AM CST 7:09 PM CST
Nautical Twilight 6:24 AM CST 7:39 PM CST
Astronomical Twilight 5:55 AM CST 8:08 PM CST
Moon 10:03 PM CST (2/28) 8:39 AM CST (2/28)
Length of Visible Light 12h 15m
Length of Day
11h 25m
Waning Gibbous, 90% of the Moon is Illuminated
Feb 28
Waning Gibbous
Mar 4
Last Quarter
Mar 11
New
Mar 19
First Quarter
Mar 27
Full

Hourly Weather History & Observations

Time (CST) Temp. Dew Point Humidity Pressure Visibility Wind Dir Wind Speed Gust Speed Precip Events Conditions
12:15 AM 26.6 °F 21.2 °F 80% 30.26 in 10.0 mi North - - N/A   Clear
12:35 AM 24.8 °F 21.2 °F 86% 30.26 in 10.0 mi North - - N/A   Clear
12:55 AM 24.8 °F 19.4 °F 80% 30.26 in 10.0 mi North - - N/A   Clear
1:15 AM 24.8 °F 21.2 °F 86% 30.27 in 10.0 mi North - - N/A   Clear
1:35 AM 26.6 °F 21.2 °F 80% 30.27 in 10.0 mi North - - N/A   Clear
1:55 AM 23.0 °F 19.4 °F 86% 30.27 in 10.0 mi North - - N/A   Clear
2:15 AM 23.0 °F 19.4 °F 86% 30.27 in 10.0 mi North - - N/A   Clear
2:35 AM 21.2 °F 17.6 °F 86% 30.27 in 10.0 mi North - - N/A   Clear
2:55 AM 23.0 °F 19.4 °F 86% 30.26 in 10.0 mi North - - N/A   Clear
3:15 AM 23.0 °F 19.4 °F 86% 30.26 in 10.0 mi North - - N/A   Clear
3:55 AM 21.2 °F 19.4 °F 93% 30.26 in 10.0 mi North - - N/A   Clear
4:35 AM 21.2 °F 17.6 °F 86% 30.26 in 10.0 mi North - - N/A   Clear
4:55 AM 21.2 °F 17.6 °F 86% 30.26 in 10.0 mi North - - N/A   Clear
5:15 AM 21.2 °F 17.6 °F 86% 30.26 in 10.0 mi North - - N/A   Clear
5:35 AM 21.2 °F 17.6 °F 86% 30.26 in 10.0 mi North - - N/A   Clear
5:55 AM 21.2 °F 17.6 °F 86% 30.26 in 10.0 mi North - - N/A   Clear
6:15 AM 21.2 °F 17.6 °F 86% 30.26 in 10.0 mi North - - N/A   Clear
6:35 AM 21.2 °F 17.6 °F 86% 30.27 in 10.0 mi North - - N/A   Clear
6:55 AM 21.2 °F 17.6 °F 86% 30.27 in 10.0 mi North - - N/A   Clear
7:15 AM 21.2 °F 17.6 °F 86% 30.28 in 10.0 mi North - - N/A   Clear
7:35 AM 21.2 °F 17.6 °F 86% 30.29 in 10.0 mi North - - N/A   Clear
7:55 AM 21.2 °F 17.6 °F 86% 30.29 in 10.0 mi North - - N/A   Clear
8:15 AM 23.0 °F 19.4 °F 86% 30.29 in 10.0 mi North - - N/A   Clear
8:35 AM 26.6 °F 19.4 °F 74% 30.31 in 10.0 mi North - - N/A   Clear
8:55 AM 28.4 °F 21.2 °F 74% 30.31 in 10.0 mi North - - N/A   Clear
9:15 AM 30.2 °F 23.0 °F 75% 30.31 in 10.0 mi North - - N/A   Clear
9:35 AM 32.0 °F 21.2 °F 64% 30.31 in 10.0 mi North - - N/A   Clear
9:55 AM 33.8 °F 23.0 °F 65% 30.31 in 10.0 mi North - - N/A   Clear
10:15 AM 35.6 °F 24.8 °F 65% 30.31 in 10.0 mi North - - N/A   Clear
10:35 AM 35.6 °F 23.0 °F 60% 30.31 in 10.0 mi North - - N/A   Clear
10:55 AM 35.6 °F 23.0 °F 60% 30.31 in 10.0 mi North - - N/A   Clear
11:15 AM 37.4 °F 23.0 °F 56% 30.31 in 10.0 mi North - - N/A   Clear
11:55 AM 41.0 °F 21.2 °F 45% 30.32 in 10.0 mi North - - N/A   Clear
12:15 PM 41.0 °F 17.6 °F 39% 30.31 in 10.0 mi North - - N/A   Clear
12:35 PM 41.0 °F 19.4 °F 42% 30.31 in 10.0 mi North - - N/A   Clear
12:55 PM 41.0 °F 21.2 °F 45% 30.30 in 10.0 mi North - - N/A   Clear
1:15 PM 42.8 °F 23.0 °F 46% 30.29 in 10.0 mi North - - N/A   Clear
1:35 PM 42.8 °F 21.2 °F 42% 30.29 in 10.0 mi North - - N/A   Clear
1:55 PM 42.8 °F 21.2 °F 42% 30.27 in 10.0 mi North - - N/A   Clear
2:15 PM 42.8 °F 23.0 °F 46% 30.26 in 10.0 mi North - - N/A   Clear
2:35 PM 44.6 °F 23.0 °F 43% 30.25 in 10.0 mi North - - N/A   Clear
2:55 PM 44.6 °F 23.0 °F 43% 30.24 in 10.0 mi North - - N/A   Clear
3:15 PM 44.6 °F 23.0 °F 43% 30.24 in 10.0 mi North - - N/A   Clear
3:35 PM 44.6 °F 24.8 °F 46% 30.23 in 10.0 mi North - - N/A   Clear
3:55 PM 44.6 °F 23.0 °F 43% 30.23 in 10.0 mi North - - N/A   Clear
4:15 PM 44.6 °F 23.0 °F 43% 30.22 in 10.0 mi North - - N/A   Clear
4:35 PM 44.6 °F 19.4 °F 37% 30.22 in 10.0 mi North - - N/A   Clear
4:55 PM 44.6 °F 19.4 °F 37% 30.22 in 10.0 mi North - - N/A   Clear
5:15 PM 44.6 °F 21.2 °F 39% 30.22 in 10.0 mi North - - N/A   Clear
5:35 PM 44.6 °F 21.2 °F 39% 30.22 in 10.0 mi North - - N/A   Clear
6:15 PM 42.8 °F 26.6 °F 53% 30.22 in 10.0 mi North - - N/A   Clear
6:35 PM 41.0 °F 26.6 °F 57% 30.22 in 10.0 mi North - - N/A   Clear
6:55 PM 39.2 °F 26.6 °F 61% 30.22 in 10.0 mi North - - N/A   Clear
7:15 PM 37.4 °F 24.8 °F 60% 30.22 in 10.0 mi North - - N/A   Clear
7:35 PM 35.6 °F 26.6 °F 70% 30.22 in 10.0 mi North - - N/A   Clear
7:55 PM 35.6 °F 26.6 °F 70% 30.22 in 10.0 mi North - - N/A   Clear
8:15 PM 35.6 °F 24.8 °F 65% 30.21 in 10.0 mi North - - N/A   Clear
8:35 PM 33.8 °F 24.8 °F 70% 30.21 in 10.0 mi North - - N/A   Clear
8:55 PM 33.8 °F 26.6 °F 75% 30.22 in 10.0 mi North - - N/A   Clear
9:15 PM 33.8 °F 26.6 °F 75% 30.21 in 10.0 mi North - - N/A   Clear
9:35 PM 33.8 °F 26.6 °F 75% 30.22 in 10.0 mi North - - N/A   Clear
9:55 PM 32.0 °F 26.6 °F 80% 30.22 in 10.0 mi North - - N/A   Clear
10:15 PM 32.0 °F 26.6 °F 80% 30.22 in 10.0 mi North - - N/A   Clear
10:35 PM 28.4 °F 23.0 °F 80% 30.22 in 10.0 mi North - - N/A   Clear
10:55 PM 28.4 °F 24.8 °F 86% 30.22 in 10.0 mi North - - N/A   Clear
11:15 PM 30.2 °F 26.6 °F 86% 30.22 in 10.0 mi North - - N/A   Clear
11:35 PM 32.0 °F 26.6 °F 80% 30.21 in 10.0 mi North - - N/A   Clear
11:55 PM 28.4 °F 26.6 °F 93% 30.22 in 10.0 mi North - - N/A   Clear